Lamoni, IA

11:49 PM CDT on June 27, 2017 (GMT -0500)
Lamoni Municipal

Weather History for KLWD - July, 2013

Change the Weather History Date:

Sunday, July 14, 2013

  Actual Average Record
Temperature  
Mean Temperature 74 °F 75 °F  
Max Temperature 86 °F 85 °F 104 °F (1980)
Min Temperature 61 °F 65 °F 50 °F (1967)
Degree Days  
Heating Degree Days 0 0  
Month to date heating degree days 0 0  
Since 1 June heating degree days 32 19  
Since 1 July heating degree days 0 0  
Cooling Degree Days 9 10  
Month to date cooling degree days 136 138  
Year to date cooling degree days 393 385  
Since 1 June cooling degree days 317 331  
Growing Degree Days 24 (Base 50)    
Moisture  
Dew Point 60 °F    
Average Humidity 64    
Maximum Humidity 84    
Minimum Humidity 43    
Precipitation  
Precipitation 0.00 in 0.19 in 1.98 in (1970)
Month to date precipitation 0.16 2.18  
Sea Level Pressure  
Sea Level Pressure 30.09 in    
Wind  
Wind Speed 6 mph (ESE)    
Max Wind Speed 14 mph    
Max Gust Speed 22 mph    
Visibility 10 miles    
Events      
T = Trace of Precipitation, MM = Missing Value Source: NWS Daily Summary

Daily Weather History Graph

Daily Weather History Graph

Search for Another Location

Airport or City:

Trip Planner

Search our weather history database for the weather conditions in past years. The results will help you decide how hot, cold, wet, or windy it might be!

Date:

Astronomy

Jul. 14, 2013 Rise Set
Actual Time 5:56 AM CDT 8:45 PM CDT
Civil Twilight 5:24 AM CDT 9:17 PM CDT
Nautical Twilight 4:43 AM CDT 9:58 PM CDT
Astronomical Twilight 3:57 AM CDT 10:45 PM CDT
Moon 12:16 PM CDT (7/14) 11:56 PM CDT (7/14)
Length of Visible Light 15h 53m
Length of Day
14h 48m
Waxing Crescent, 35% of the Moon is Illuminated
Jul 14
Waxing Crescent
Jul 15
First Quarter
Jul 22
Full
Jul 29
Last Quarter
Aug 6
New

Hourly Weather History & Observations

Time (CDT) Temp. Heat Index Dew Point Humidity Pressure Visibility Wind Dir Wind Speed Gust Speed Precip Events Conditions
12:53 AM 71.1 °F - 60.1 °F 68% 30.06 in 10.0 mi ESE 4.6 mph - N/A   Overcast
1:53 AM 69.1 °F - 61.0 °F 75% 30.06 in 10.0 mi ESE 3.5 mph - N/A   Mostly Cloudy
2:53 AM 68.0 °F - 60.1 °F 76% 30.05 in 10.0 mi ESE 4.6 mph - N/A   Clear
3:53 AM 66.0 °F - 59.0 °F 78% 30.05 in 10.0 mi ESE 5.8 mph - N/A   Clear
4:53 AM 64.9 °F - 59.0 °F 81% 30.05 in 10.0 mi SE 4.6 mph - N/A   Clear
5:53 AM 64.0 °F - 57.9 °F 80% 30.06 in 10.0 mi Calm Calm - N/A   Clear
6:53 AM 64.9 °F - 59.0 °F 81% 30.09 in 10.0 mi Calm Calm - N/A   Clear
7:53 AM 69.1 °F - 61.0 °F 75% 30.09 in 10.0 mi SE 4.6 mph - N/A   Clear
8:53 AM 72.0 °F - 62.1 °F 71% 30.10 in 10.0 mi ESE 6.9 mph - N/A   Clear
9:53 AM 77.0 °F - 63.0 °F 62% 30.09 in 10.0 mi SSE 8.1 mph - N/A   Clear
10:53 AM 79.0 °F - 62.1 °F 56% 30.11 in 10.0 mi SE 6.9 mph - N/A   Clear
11:53 AM 81.0 °F 81.7 °F 61.0 °F 50% 30.12 in 10.0 mi SE 11.5 mph 17.3 mph N/A   Clear
12:53 PM 82.9 °F 83.2 °F 60.1 °F 46% 30.11 in 10.0 mi SE 8.1 mph - N/A   Partly Cloudy
1:53 PM 84.0 °F 84.4 °F 61.0 °F 46% 30.10 in 10.0 mi ESE 10.4 mph 21.9 mph N/A   Scattered Clouds
2:53 PM 84.0 °F 84.0 °F 60.1 °F 44% 30.09 in 10.0 mi ESE 9.2 mph 16.1 mph N/A   Partly Cloudy
3:53 PM 84.9 °F 84.4 °F 59.0 °F 41% 30.09 in 10.0 mi SE 9.2 mph 19.6 mph N/A   Partly Cloudy
4:53 PM 84.9 °F 84.4 °F 59.0 °F 41% 30.08 in 10.0 mi ESE 10.4 mph - N/A   Partly Cloudy
5:53 PM 84.0 °F 83.8 °F 59.0 °F 43% 30.08 in 10.0 mi ESE 8.1 mph - N/A   Partly Cloudy
6:53 PM 82.9 °F 83.2 °F 60.1 °F 46% 30.09 in 10.0 mi ESE 6.9 mph - N/A   Mostly Cloudy
7:53 PM 81.0 °F 81.6 °F 60.1 °F 49% 30.10 in 10.0 mi ESE 5.8 mph - N/A   Clear
8:53 PM 77.0 °F - 61.0 °F 58% 30.11 in 10.0 mi East 4.6 mph - N/A   Clear
9:53 PM 73.9 °F - 61.0 °F 64% 30.13 in 10.0 mi Calm Calm - N/A   Clear
10:53 PM 70.0 °F - 61.0 °F 73% 30.15 in 10.0 mi East 3.5 mph - N/A   Clear
11:53 PM 69.1 °F - 61.0 °F 75% 30.16 in 10.0 mi ENE 3.5 mph - N/A   Clear